GalileoSat-22

operational
NORAD ID: 43058 Int'l Des: 2017-079 Owner: GSAEU Country: I-EU Constellation: Galileo
MEOCIRCULAR

GalileoSat-22について

説明を読み込み中...

リアルタイム位置

3D地球を読み込み中...

次回通過

高度履歴

Altitude vs Time

uPlot chart will show altitude changes over time

軌道要素

1 43058U 17079D 25346.62814548 .00000017 00000-0 00000-0 0 9990
2 43058 55.1287 226.6365 0002841 306.3289 53.7237 1.70474063 49839
Epoch: Dec 12, 2025 • Age: 33 hours

現在のステータス

高度 23233.9 km
速度 3.67 km/s
衛星直下点 37.43°N, 74.55°W
打ち上げ日 Dec 12, 2017
運用期間 8 years
タイプ navigation

技術仕様

分類 Payload
質量 715.00 kg
乾燥質量 700.00 kg
総質量 715.00 kg
長さ 2.70 m
直径 1.60 m
スパン 14.70 m
形状 Box+2 pan
製造者 OHB
バスタイプ GalileoSat
フェーズステータス In Orbit
所有者/国 GSAEU/I-EU

大規模コンステレーション

Loading constellations...